Weather History for Alliance, NE

Change the Weather History Date:

Friday, February 15, 2013

  Actual Average Record
Temperature  
Mean Temperature 18 °F 27 °F  
Max Temperature 30 °F 41 °F 63 °F (2011)
Min Temperature 5 °F 13 °F -31 °F (1903)
Degree Days  
Heating Degree Days 47 38  
Month to date heating degree days 547 590  
Since 1 July heating degree days 4616 4935  
Cooling Degree Days 0 0  
Month to date cooling degree days 0 0  
Year to date cooling degree days 0 0  
Moisture  
Dew Point 13 °F    
Average Humidity 68    
Maximum Humidity 88    
Minimum Humidity 47    
Precipitation  
Precipitation T in 0.01 in 0.20 in (2005)
Month to date precipitation T 0.19  
Year to date precipitation 0.22 0.37  
Sea Level Pressure  
Sea Level Pressure 30.37 in    
Wind  
Wind Speed 8 mph (NW)    
Max Wind Speed 15 mph    
Max Gust Speed 21 mph    
Visibility 8 miles    
Events Snow    
T = Trace of Precipitation, MM = Missing Value Source: NWS Daily Summary

Daily Weather History Graph

Daily Weather History Graph

Search for Another Location

Airport:

Trip Planner

Search our weather history database for the weather conditions in past years. The results will help you decide how hot, cold, wet, or windy it might be!

Date:

Astronomy

Feb. 15, 2013 Rise Set
Actual Time 6:46 AM MST 5:24 PM MST
Civil Twilight 6:18 AM MST 5:53 PM MST
Nautical Twilight 5:45 AM MST 6:25 PM MST
Astronomical Twilight 5:13 AM MST 6:58 PM MST
Moon 9:17 AM MST (2/15) 11:34 PM MST (2/15)
Length of Visible Light 11h 34m
Length of Day
10h 37m
Waxing Crescent, 31% of the Moon is Illuminated
Feb 15
Waxing Crescent
Feb 17
First Quarter
Feb 25
Full
Mar 4
Last Quarter
Mar 11
New

Hourly Weather History & Observations

Time (MST) Temp. Windchill Dew Point Humidity Pressure Visibility Wind Dir Wind Speed Gust Speed Precip Events Conditions
12:53 AM 7.0 °F -5.7 °F 1.9 °F 80% 30.40 in 10.0 mi West 8.1 mph - N/A   Clear
1:53 AM 7.0 °F -5.7 °F 3.0 °F 84% 30.40 in 10.0 mi West 8.1 mph - N/A   Clear
2:53 AM 7.0 °F -5.7 °F 3.0 °F 84% 30.39 in 10.0 mi West 8.1 mph - N/A   Clear
3:53 AM 7.0 °F -3.3 °F 3.0 °F 84% 30.38 in 10.0 mi West 5.8 mph - N/A   Mostly Cloudy
4:53 AM 10.0 °F 1.8 °F 5.0 °F 80% 30.39 in 10.0 mi West 4.6 mph - N/A   Mostly Cloudy
5:53 AM 14.0 °F 2.9 °F 8.1 °F 77% 30.38 in 10.0 mi West 8.1 mph - N/A   Scattered Clouds
6:53 AM 10.0 °F -0.9 °F 5.0 °F 80% 30.41 in 10.0 mi West 6.9 mph - N/A   Partly Cloudy
7:53 AM 16.0 °F 4.4 °F 10.0 °F 77% 30.43 in 10.0 mi West 9.2 mph - N/A   Overcast
8:53 AM 21.0 °F 12.4 °F 14.0 °F 74% 30.43 in 9.0 mi WNW 6.9 mph - 0.00 in   Overcast
9:53 AM 23.0 °F 11.7 °F 16.0 °F 74% 30.43 in 8.0 mi North 11.5 mph - 0.00 in Snow Light Snow
10:22 AM 23.0 °F 11.1 °F 15.8 °F 74% 30.29 in 2.5 mi North 12.7 mph - 0.00 in Snow Light Snow
10:28 AM 23.0 °F 11.7 °F 17.6 °F 80% 30.29 in 1.2 mi North 11.5 mph - 0.00 in Snow Light Snow
10:39 AM 23.0 °F 11.7 °F 17.6 °F 80% 30.29 in 1.0 mi NNE 11.5 mph - 0.00 in Snow Light Snow
10:47 AM 23.0 °F 11.7 °F 17.6 °F 80% 30.29 in 1.5 mi North 11.5 mph - 0.00 in Snow Light Snow
10:53 AM 23.0 °F 12.4 °F 18.0 °F 81% 30.46 in 1.5 mi NNE 10.4 mph - 0.00 in Snow Light Snow
11:04 AM 23.0 °F 11.7 °F 17.6 °F 80% 30.29 in 2.0 mi NNE 11.5 mph - 0.00 in Snow Light Snow
11:16 AM 23.0 °F 11.7 °F 17.6 °F 80% 30.29 in 2.5 mi North 11.5 mph - 0.00 in Snow Light Snow
11:39 AM 24.8 °F 14.6 °F 17.6 °F 74% 30.29 in 4.0 mi North 10.4 mph - 0.00 in Snow Light Snow
11:53 AM 24.1 °F 13.7 °F 17.1 °F 75% 30.46 in 5.0 mi North 10.4 mph - 0.00 in Snow Light Snow
12:02 PM 24.8 °F 15.3 °F 17.6 °F 74% 30.29 in 4.0 mi North 9.2 mph - 0.00 in Snow Light Snow
12:20 PM 24.8 °F 14.6 °F 15.8 °F 69% 30.28 in 9.0 mi North 10.4 mph - 0.00 in   Mostly Cloudy
12:53 PM 27.0 °F 16.1 °F 15.1 °F 61% 30.44 in 10.0 mi NNW 12.7 mph - 0.00 in   Partly Cloudy
1:53 PM 28.0 °F 17.5 °F 14.0 °F 56% 30.43 in 10.0 mi North 12.7 mph - N/A   Overcast
2:53 PM 28.0 °F 20.0 °F 14.0 °F 56% 30.42 in 10.0 mi North 8.1 mph - N/A   Mostly Cloudy
3:53 PM 30.0 °F 21.7 °F 12.9 °F 49% 30.41 in 10.0 mi North 9.2 mph - N/A   Scattered Clouds
4:53 PM 27.0 °F 18.7 °F 14.0 °F 58% 30.40 in 10.0 mi North 8.1 mph - N/A   Mostly Cloudy
5:53 PM 19.9 °F 14.9 °F 12.9 °F 74% 30.42 in 10.0 mi ESE 3.5 mph - N/A   Partly Cloudy
6:53 PM 17.1 °F 7.6 °F 12.0 °F 81% 30.42 in 10.0 mi South 6.9 mph - N/A   Clear
7:53 PM 18.0 °F - 10.9 °F 74% 30.40 in 10.0 mi Calm Calm - N/A   Mostly Cloudy
8:53 PM 15.1 °F 7.7 °F 10.0 °F 80% 30.37 in 10.0 mi SW 4.6 mph - N/A   Overcast
9:53 PM 19.9 °F 12.1 °F 15.1 °F 81% 30.32 in 10.0 mi WSW 5.8 mph - N/A   Overcast
10:53 PM 21.0 °F 11.4 °F 16.0 °F 81% 30.31 in 10.0 mi SW 8.1 mph - N/A   Overcast
11:53 PM 24.1 °F 15.2 °F 18.0 °F 77% 30.26 in 10.0 mi SW 8.1 mph - N/A   Overcast